This is the latest recevied weather packets stored in our database for station/object DB0HRC-6. If no packets are shown the sender has not sent any weather packets the latest 10 day(s).
| Time | Temp. | Humidity | Pressure | Rain* | Wind** | Luminosity | Snow |
|---|---|---|---|---|---|---|---|
| 1777381206 | 15° C | 44% | 1019.8 hPa | 0 mm | - | - | - |
| 1777380307 | 15° C | 45% | 1019.7 hPa | 0 mm | - | - | - |
| 1777379406 | 15° C | 45% | 1019.7 hPa | 0 mm | - | - | - |
| 1777378508 | 14.44° C | 47% | 1019.8 hPa | 0 mm | - | - | - |
| 1777377607 | 14.44° C | 47% | 1020 hPa | 0 mm | - | - | - |
| 1777376707 | 13.89° C | 48% | 1020.1 hPa | 0 mm | - | - | - |
| 1777375806 | 13.89° C | 47% | 1020.1 hPa | 0 mm | - | - | - |
| 1777374906 | 13.89° C | 50% | 1019.8 hPa | 0 mm | - | - | - |
| 1777374006 | 13.89° C | 50% | 1019.9 hPa | 0 mm | - | - | - |
| 1777373106 | 13.33° C | 51% | 1020.1 hPa | 0 mm | - | - | - |
| 1777372207 | 13.33° C | 53% | 1020.1 hPa | 0 mm | - | - | - |
| 1777371306 | 12.78° C | 53% | 1020.1 hPa | 0 mm | - | - | - |
| 1777370406 | 12.78° C | 52% | 1020 hPa | 0 mm | - | - | - |
| 1777369507 | 12.22° C | 53% | 1020.3 hPa | 0 mm | - | - | - |
| 1777368606 | 12.22° C | 50% | 1020.2 hPa | 0 mm | - | - | - |
| 1777367706 | 11.67° C | 50% | 1020.3 hPa | 0 mm | - | - | - |
| 1777366806 | 11.67° C | 52% | 1020.3 hPa | 0 mm | - | - | - |
| 1777365906 | 10.56° C | 51% | 1020.1 hPa | 0 mm | - | - | - |
| 1777365006 | 10.56° C | 51% | 1020.1 hPa | 0 mm | - | - | - |
| 1777364108 | 10° C | 52% | 1020 hPa | 0 mm | - | - | - |
| 1777363206 | 10.56° C | 53% | 1019.9 hPa | 0 mm | - | - | - |
| 1777362307 | 10° C | 54% | 1020 hPa | 0 mm | - | - | - |
| 1777361407 | 9.44° C | 53% | 1019.8 hPa | 0 mm | - | - | - |
| 1777360507 | 9.44° C | 53% | 1019.7 hPa | 0 mm | - | - | - |
| 1777359606 | 8.89° C | 54% | 1019.7 hPa | 0 mm | - | - | - |
* Rain latest hour (hover to see other rain measurements)
** Current wind speed in m/s (hover to see current wind gust speed)